Regional Weather Roundup
Issued by NWS Albany, NY

Home | Current Version | Previous Version | Text Only | Print | Product List | Glossary On
Versions: 1 2 3 4 5 6 7 8 9 10 11 12 13 14 15 16 17 18 19 20 21 22 23 24 25 26 27 28 29 30 31 32 33 34 35 36 37 38 39 40 41 42 43 44 45 46 47 48 49 50
776
ASUS41 KALY 221810
RWRALY

NEW YORK STATE HOURLY WEATHER ROUNDUP
NATIONAL WEATHER SERVICE ALBANY NY
100 PM EST FRI NOV 22 2019

NOTE: "FAIR" INDICATES FEW OR NO CLOUDS BELOW 12,000 FEET WITH NO
SIGNIFICANT WEATHER AND/OR NO OBSTRUCTIONS TO VISIBILITY.

NYZ032-033-038>043-046>054-057>066-NYZ062>081-082-084-221900-
EAST


CITY           SKY/WX    TMP DP  RH WIND       PRES   REMARKS
ALBANY         LGT RAIN  42  33  70 W16G28    29.70S
GLENS FALLS    CLOUDY    42  33  70 SW6       29.64S
POUGHKEEPSIE   LGT RAIN  48  43  82 SW8       29.67R
NEWBURGH       LGT RAIN  46  46 100 W14G23    29.68R FOG
MONTGOMERY     LGT RAIN  47  42  83 NW9       29.68R
WHITE PLAINS   LGT RAIN  49  43  80 VRB6      29.65F FOG
ISLIP          LGT RAIN  50  42  74 SW12      29.66F
NEW YORK CITY  LGT RAIN  52  43  71 W21G28    29.67F
CENTRAL PARK   LGT RAIN  50  44  80 W8        29.70F
$$

NYZ005>009-017-018-044>046-055-056-221900-
CENTRAL


CITY           SKY/WX    TMP DP  RH WIND       PRES   REMARKS
FULTON         CLOUDY    42  26  53 W26G45    29.78R
SYRACUSE       CLOUDY    40  29  64 W25G35    29.78S WCI  29
ROME           LGT RAIN  39  33  79 W16G22    29.76S WCI  30
ELMIRA         CLOUDY    41  29  62 NW14G29   29.81S
BINGHAMTON     CLOUDY    37  30  75 W10G24    29.75F WCI  30
MONTICELLO     LGT RAIN  39  36  89 NW10G21   29.73R WCI  32
$$

NYZ026>034-041>043-087-221900-
NORTH


CITY           SKY/WX    TMP DP  RH WIND       PRES   REMARKS
WATERTOWN      CLOUDY    39  28  64 W20G35    29.72R WCI  29
FORT DRUM      NOT AVBL
OGDENSBURG     PTSUNNY   36  30  80 NW16G23   29.65R WCI  26
MASSENA        CLOUDY    37  27  67 W26G35    29.64R WCI  25
SARANAC LAKE     N/A     34  30  85 W16G29    29.55S WCI  24
PLATTSBURGH    PTSUNNY   44  32  62 SW14G30   29.54F
$$

NYZ001>004-010>016-019>021-085-221900-
WEST


CITY           SKY/WX    TMP DP  RH WIND       PRES   REMARKS
NIAGARA FALLS  CLOUDY    36  25  64 W20G31    29.91R WCI  25
BUFFALO        PTSUNNY   37  24  59 W18G30    29.90S WCI  27
DUNKIRK        CLOUDY    38  24  57 W17G23    29.96S WCI  28
JAMESTOWN      MIX PCPN  32  28  85 W13       29.92S WCI  22
WELLSVILLE     CLOUDY    33  27  78 NW21G28   29.83S WCI  21
ROCHESTER      CLOUDY    38  24  57 W25G33    29.84S WCI  27
PENN YAN       PTSUNNY   40  25  55 W18G30    29.80S WCI  31
$$

             KEY
       WCI = WIND CHILL INDEX
       VSB = VISIBILITY
       HX  = HEAT INDEX
$$




USA.gov is the U.S. government's official web portal to all federal, state and local government web resources and services.